Location: Petruro
(41.0333°N, 14.7833°E)
Time: 02:29:44
(UTC+00:00)

ATLAS 5 CENTAUR R/B - Visible Passes

Search period start: 23 October 2021 00:00
Search period end: 02 November 2021 00:00
Orbit: 499 x 1157 km, 63.3° (Epoch: 21 October)

Date Brightness Start Highest point End Pass type
(mag) Time Alt. Az. Time Alt. Az. Time Alt. Az.
25 Oct 4.3 17:35:01 10° NW 17:35:36 10° NNW 17:36:10 10° NNW visible
26 Oct 4.2 17:15:00 10° NW 17:16:04 11° NNW 17:17:11 10° NNW visible
27 Oct 4.2 16:55:09 10° NW 16:56:33 11° NNW 16:58:01 10° N visible
28 Oct 4.1 16:35:22 10° NW 16:37:02 12° NNW 16:38:46 10° N visible
